www.pogodaiklimat.ru

Погода и климат >> Архив погоды >> Россия >> Нижегородская область >> Большое Болдино


ПОГОДА в Большом Болдино

  • Прогноз погоды в Большом Болдино
  • Монитор погоды в Большом Болдино
  • Климат города

АРХИВ ПОГОДЫ в Большом Болдино

Время (UTC), дата Ветер
(напр.,м/с)
 
Видим.   Явления Облачность Т
(С)
Тd
(С)
f
(%)
Тe
(С)
Тes
(С)
Комфортность P
(гПа)
Po
(гПа)
Тmin
(С)
Tmax
(С)
R
(мм)
R24
(мм)
S
(см)
06 14.02 СВ 1-1
{1}
10 км ясно -15.6 -17.5 85 -18 -17 1033.2 1007.3 -19.3
09 14.02 СВ 1-2
{3}
10 км ясно -12.9 -14.9 85 -15 -11 1034.0 1008.2
12 14.02 СВ 1-2
{2}
10 км ясно -10.2 -13.8 75 -12 -11 1034.2 1008.7
15 14.02 В 1-2
{3}
20 км ясно -12.5 -15.2 80 -15 -15 1035.3 1009.6 -9.6
18 14.02 В 2-2
{2}
20 км ясно -14.1 -16.1 85 -19 -19 1035.7 1009.8
21 14.02 В 2-2
{2}
20 км ясно -14.5 -15.8 90 -19 -19 1036.3 1010.4
00 15.02 штиль 0
{3}
20 км ясно -18.6 -19.8 90 -19 -19 1037.9 1011.5
03 15.02 ЮВ 1-2
{2}
20 км ясно -17.4 -19.3 85 -20 -20 1038.3 1012.1 -18.9 28
06 15.02 ЮВ 2-3
{3}
20 км ясно -15.0 -17.0 85 -20 -19 1039.4 1013.3
09 15.02 В 1-2
{3}
20 км ясно -11.6 -13.6 85 -14 -10 1040.2 1014.5
12 15.02 СВ 1-1
{3}
20 км ясно -8.8 -13.7 68 -11 -10 1040.1 1014.6
15 15.02 В 1-2
{2}
20 км ясно -11.9 -13.9 85 -14 -14 1040.7 1014.9 -7.5
18 15.02 ЮВ 1-2
{3}
20 км ясно -13.8 -15.1 90 -16 -16 1041.1 1015.1
21 15.02 В 1-2
{3}
20 км ясно -16.0 -17.3 90 -19 -19 1041.4 1015.2
00 16.02 ЮВ 2-3
{3}
20 км ясно -14.9 -16.2 90 -20 -20 1041.4 1015.3
03 16.02 ЮВ 2-3
{3}
20 км 10/0
[Ac und]
-11.5 -13.5 85 -16 -16 1040.6 1014.9 -16.3 28
06 16.02 ЮВ 1-2
{4}
10 км 10/0
[Ac und]
-10.3 -13.1 80 -13 -12 1039.9 1014.3
09 16.02 Ю 2-4
{4}
20 км 8/0
[Ac trans Ci fib]
-5.8 -11.5 64 -10 -7 1039.8 1014.6
12 16.02 Ю 1-3
{5}
20 км 8/0
[Ac trans Ci fib]
-3.8 -11.5 55 -6 -5 1039.4 1014.3
15 16.02 ЮВ 1-3
{4}
20 км 10/0
[Ac und]
-6.1 -11.0 68 -8 -8 1039.2 1014.0 -3.3
18 16.02 Ю 1-2
{3}
20 км 10/0
[Ac und]
-6.5 -10.6 73 -9 -9 1038.9 1013.7
21 16.02 ЮВ 1-3
{4}
20 км 10/0
[Ac und]
-6.4 -10.5 73 -9 -9 1038.2 1013.0
00 17.02 ЮЗ 1-3
{6}
20 км 10/0
[Ac und]
-6.8 -10.6 74 -9 -9 1037.9 1012.6
03 17.02 ЮВ 1-2
{3}
20 км 10/0
[Ac und]
-7.4 -11.3 74 -10 -10 1037.0 1011.8 -7.4 28
06 17.02 ЮВ 2-4
{5}
20 км 4/0
[Ac trans]
-8.4 -13.7 66 -13 -12 1036.7 1011.4
09 17.02 Ю 2-4
{6}
20 км 8/0
[Ac trans]
-6.0 -11.8 64 -10 -8 1035.3 1010.2
12 17.02 Ю 2-4
{6}
20 км 10/0
[Ac trans Ci]
-3.7 -11.3 56 -7 -7 1033.9 1009.1
15 17.02 ЮВ 2-4
{5}
20 км 10/0
[Ac und]
-5.2 -11.1 63 -9 -9 1032.7 1007.7 -3.5
18 17.02 ЮВ 2-5
{5}
20 км 10/0
[Ac und]
-5.2 -10.6 66 -9 -9 1031.9 1007.0
21 17.02 ЮВ 2-3
{5}
20 км 10/0
[Ac trans Ci]
-6.7 -11.3 70 -11 -11 1031.1 1006.1
00 18.02 ЮВ 3-4
{7}
20 км 10/0
[Ac trans Ci]
-9.5 -13.0 76 -15 -15 1030.6 1005.3
03 18.02 ЮВ 3-6
{6}
20 км 10/0
[Ac trans Ci]
-8.4 -12.6 72 -14 -14 1029.3 1004.1 -9.7 28
06 18.02 ЮВ 3-5
{7}
4000 м слабый снег 10/0
[As op]
-8.1 -11.3 78 -14 -14 1028.8 1003.6
09 18.02 ЮВ 2-5
{7}
4000 м слабый снег 10/0
[As op]
-5.6 -12.2 60 -10 -9 1027.2 1002.4
12 18.02 ЮВ 4-6
{6}
4000 м слабый снег 10/0
[As op]
-6.1 -8.8 81 -13 -12 1026.2 1001.3
15 18.02 В 4-7
{7}
4000 м слабый снег 10/0
[As op]
-6.4 -9.6 78 -13 -13 1024.0 999.1 -5.1 0.8
18 18.02 ЮВ 3-5
{9}
4000 м слабый снег 10/0
[As op]
-7.6 -9.8 84 -13 -13 1023.1 998.1
21 18.02 Ю 1-2
{6}
4000 м слабый снег 10/0
[As op]
-8.6 -10.5 86 -11 -11 1021.7 996.8
00 19.02 Ю 1-3
{3}
4000 м слабый снег 10/0
[As op]
-9.4 -11.5 85 -12 -12 1021.3 996.3
03 19.02 Ю 1-3
{4}
10 км {снег} 6/0
[Ac trans]
-12.1 -14.1 85 -14 -14 1021.1 995.8 -12.4 2 28
06 19.02 Ю 2-5
{5}
20 км {снег} 10/0
[Ac trans Cs]
-11.4 -13.4 85 -16 -15 1021.0 995.8 -13.4
09 19.02 Ю 2-4
{6}
20 км 8/0
[Cs]
-7.8 -10.9 78 -12 -9 1020.6 995.7
12 19.02 Ю 1-3
{5}
20 км 10/0
[Ac trans Cc]
-4.5 -9.2 70 -7 -5 1019.8 995.2
15 19.02 ЮВ 2-4
{4}
20 км {ливн. осадки} 10/3 600 м
[Sc Ac und]
-6.6 -9.0 83 -11 -11 1019.7 995.0 -3.1 0.4
18 19.02 Ю 2-4
{4}
20 км {ливн. осадки, снег} 10/8 300 м
[Sc Ac und]
-6.3 -7.8 89 -11 -11 1018.8 994.1
21 19.02 Ю 2-5
{5}
4000 м слабый снег 10/0 330 м
[As op]
-5.8 -6.9 92 -10 -10 1017.4 992.7
00 20.02 Ю 3-5
{6}
10 км {снег} 10/10 270 м
[St]
-5.6 -6.7 92 -11 -11 1016.7 992.2
03 20.02 Ю 3-5
{5}
10 км 10/10 240 м
[St]
-5.5 -6.6 92 -11 -11 1015.7 991.2 -6.9 1 32
06 20.02 ЮЗ 2-4
{6}
4000 м слабый снег 10/10 450 м
[Sc]
-5.2 -6.6 90 -10 -10 1015.3 990.8
09 20.02 ЮЗ 2-4
{6}
20 км {снег} 10/0
[Ac und]
-3.9 -6.8 80 -8 -7 1015.1 990.7
12 20.02 ЮЗ 3-3
{5}
20 км {снег} 10/0
[Ac und]
-3.6 -6.1 83 -9 -9 1014.8 990.5
15 20.02 З 3-3
{5}
20 км {снег} 10/0
[Ac und]
-7.1 -9.2 85 -13 -13 1015.5 990.8 -3.5 0.7
18 20.02 З 3-5
{5}
20 км {снег} 10/0
[Ac und]
-6.8 -8.4 88 -13 -13 1016.1 991.4
21 20.02 З 3-4
{6}
20 км 10/0
[Ac und]
-8.8 -10.3 89 -15 -15 1016.4 991.5
00 21.02 ЮЗ 3-4
{6}
20 км 6/0
[Ac trans]
-11.2 -12.5 90 -17 -17 1017.1 992.0

 

Местоположение метеостанции Большое Болдино (Нижегородская область, Россия): широта 55.02 долгота 45.32 высота над уровнем моря 192 м.

В архиве по умолчанию представлена погода в Большом Болдино за последнюю неделю. Архивные данные за месяц целиком и за предыдущие месяцы, начиная с января 2011 года, Вы можете получить, выбрав интересующий диапазон дат из раскрывающегося списка и нажав кнопку "Ввод!".

Внимание! Время в таблицах - всемирное. Для получения местного времени необходимо прибавить поправку, которая в Большом Болдино равна 3 ч.

Смотрите также архив погоды в соседних городах и на ближайших метеорологических станциях:

Погода в Лукоянове (Нижегородская область, Россия) (52 км)
Погода в Сергаче (Нижегородская область, Россия) (58 км)
Погода в Порецком (Чувашия, Россия) (67 км)
Погода в Алатыре (Чувашия, Россия) (84 км)
Погода в Саранске (Мордовия, Россия) (99 км)
Погода в Больших Березниках (Мордовия, Россия) (104 км)
Погода в Арзамасе (Нижегородская область, Россия) (105 км)
Погода в Сурском (Ульяновская область, Россия) (107 км)
Погода в Лысково (Нижегородская область, Россия) (112 км)
Погода в Дальнем Константиново (Нижегородская область, Россия) (117 км)

Пояснения к столбцам:

Ветер - указаны скорость ветра в м/с - средняя за 10 мин, порывы в срок и между сроками (в фигурных скобках) и направление, откуда дует ветер: С - северный, СВ - северо-восточный, В - восточный, ЮВ - юго-восточный, Ю - южный, ЮЗ - юго-западный, З - западный, СЗ - северо-западный.
Видимость - горизонтальная дальность видимости в метрах или километрах. При видимости от 1 до 10 км при отсутствии осадков обычно наблюдается дымка, при ухудшении видимости до 1 км и менее - туман. В сухую погоду видимость может ухудшаться дымом, пылью или мглою.
Явления - указаны атмосферные явления, наблюдавшиеся в срок или в последний час перед сроком; фигурными скобками обозначены явления, наблюдавшиеся между сроками (за 1-3 часа до срока); квадратными скобками обозначены град или гололедные отложения с указанием их диаметра в мм.
Облачность - указаны через наклонную черту общая и нижняя облачность в баллах и высота нижней границы облаков в метрах; квадратными скобками обозначены формы облаков: Ci - перистые, Cs - перисто-слоистые, Cc - перисто-кучевые, Ac - высококучевые, As - высокослоистые, Sc - слоисто-кучевые, Ns - слоисто-дождевые, Cu - кучевые, Cb - кучево-дождевые. Подробнее классификацию облаков см. в Атласе облаков (PDF).
T - Температура воздуха - температура, измеренная на высоте 2 м над землей.
Td - Температура точки росы - температура, при понижении до которой содержащийся в воздухе водяной пар достигнет насыщения.
f - Относительная влажность воздуха - влажноcть воздуха, измеренная на высоте 2 м над землей.
Te - Эффективная температура - температура, которую ощущает одетый по сезону человек в тени. Характеристика душности погоды. При расчете учитывается влияние влажности воздуха и скорости ветра на теплоощущения человека.
Tes - Эффективная температура на солнце - температура, которую ощущает человек, с поправкой на солнечный нагрев. Характеристика знойности погоды. Зависит от высоты солнца над горизонтом, облачности и скорости ветра. Ночью, в пасмурную погоду, а также при ветре 12 м/с и более поправка равна нулю.
P - Атмосферное давление - приведенное к уровню моря атмосферное давление.
Po - Атмосферное давление - измеренное на уровне метеостанции атмосферное давление.
Tmin - Минимальная температура - минимум температуры воздуха на высоте 2 м над землей.
Tmax - Максимальная температура - максимум температуры воздуха на высоте 2 м над землей.
R - Количество осадков - Количество выпавших осадков за период времени, мм. При наведении курсора мыши на число - период времени, за который выпало указанное количество осадков.
R24 - Количество осадков - Количество выпавших осадков за 24 часа, мм.
S - Снежный покров - Высота снежного покрова, см. При наведении курсора мыши на число - состояние снежного покрова и степень покрытия местности в баллах.